{"data":{"norad_id":53973,"epoch":"2026-09-20T22:23:10.388832Z","epoch_age_seconds":49109,"freshness":"FRESH","line1":"1 53973U 22125K   26263.93275913 -.00007182  00000+0 -21958-3 0  9994","line2":"2 53973  53.1587  59.5186 0001574 122.6688 237.4466 15.31742256218900","mean_motion":15.31742256,"eccentricity":0.0001574,"inclination_deg":53.1587,"raan_deg":59.5186,"arg_perigee_deg":122.6688,"mean_anomaly_deg":237.4466,"bstar":-0.00021958,"rev_number":21890,"period_min":94.010594429929,"perigee_km":469.53604177131,"apogee_km":471.69202859719,"semimajor_km":6848.7510351843,"source":"CELESTRAK","updated_at":"2026-09-21T09:00:33.040462Z"}}